Location: ????????
(55.8075°N, 38.0861°E)
Time: 21:40:11
(UTC+00:00)

Daily predictions for brighter satellites

Satellite Brightness Start Highest point End
(mag) Time Altitude Azimuth Time Altitude Azimuth Time Altitude Azimuth
CZ-2C R/B 3.0 16:29:08 10° SSE 16:34:06 67° ENE 16:38:53 10° NNW
STARLINK-1114 4.0 16:30:44 10° W 16:34:47 55° S 16:38:51 10° ESE
Resurs 1-3 4.4 16:31:48 10° SE 16:35:46 34° ENE 16:39:45 10° N
Cosmos 1048 Rocket 4.0 16:32:18 10° SSW 16:37:22 64° ESE 16:42:33 10° NNE
Meteor 1-22 Rocket 4.3 16:32:26 10° SSE 16:37:29 48° E 16:42:35 10° NNE
SJ-6B 3.1 16:34:19 10° SSE 16:38:19 57° ENE 16:42:24 10° N
Cosmos 1709 Rocket 4.0 16:32:12 10° N 16:38:27 65° ENE 16:44:34 10° SSE
CZ-4C R/B 2.9 16:33:18 10° WSW 16:38:47 62° NNW 16:45:27 10° NE
ISS -3.0 16:35:38 10° WSW 16:38:50 40° S 16:42:01 10° ESE
USA 81 4.1 16:34:20 10° N 16:39:39 90° SSW 16:44:56 10° S
STARLINK-1130 (DARKSAT) 4.1 16:35:41 10° W 16:39:44 54° S 16:43:48 10° ESE
Resurs 01 Rocket 2.6 16:38:58 10° ESE 16:42:50 31° ENE 16:46:43 10° N
NOSS 3-4 (A) 4.3 16:37:08 10° WNW 16:43:28 50° NNE 16:50:28 10° E
NOSS 3-4 (C) 4.3 16:37:14 10° WNW 16:43:34 50° NNE 16:50:34 10° E
Cosmos 494 Rocket 4.2 16:39:05 10° S 16:44:00 47° ESE 16:48:59 10° NE
Cosmos 1331 Rocket 4.4 16:39:32 10° NNW 16:44:41 65° WSW 16:49:46 10° SSE
STARLINK-1084 4.1 16:40:39 10° W 16:44:42 52° SSW 16:48:45 10° ESE
SPOT 3 Rocket 3.7 16:42:10 10° SE 16:47:17 57° ENE 16:52:25 10° N
Cosmos 2219 Rocket 2.8 16:43:39 10° SW 16:49:16 61° NW 16:54:53 10° NNE
STARLINK-1098 4.1 16:45:37 10° W 16:49:39 51° SSW 16:53:37 10° ESE
STARLINK-1187 4.4 16:47:20 10° SSW 16:49:46 20° SSE 16:52:00 11° ESE
STARLINK-1188 4.5 16:47:32 10° SSW 16:49:51 19° SSE 16:51:57 11° ESE
Cosmos 1733 3.2 16:46:14 10° S 16:49:56 58° E 16:53:40 10° NNE
STARLINK-1198 4.5 16:47:48 10° SSW 16:50:06 19° SSE 16:52:12 11° ESE
STARLINK-1235 4.3 16:47:54 10° SSW 16:50:25 22° SSE 16:52:45 11° E
Cosmos 1674 4.1 16:47:32 10° NNW 16:51:08 42° W 16:54:41 10° SSW
STARLINK-1199 4.5 16:49:25 10° SSW 16:51:47 20° SSE 16:53:52 12° ESE
STARLINK-1191 4.5 16:49:52 10° SSW 16:52:14 20° SSE 16:54:18 12° ESE
SL-14 R/B 3.3 16:48:19 10° N 16:52:25 83° E 16:56:27 10° SSE
STARLINK-1210 4.5 16:50:18 10° SSW 16:52:41 20° SSE 16:54:44 12° ESE
STARLINK-1221 4.4 16:50:44 10° SSW 16:53:08 20° SSE 16:55:11 12° ESE
STARLINK-1219 4.4 16:51:11 10° SSW 16:53:35 20° SSE 16:55:37 12° ESE
Cosmos 1943 Rocket 2.3 16:48:30 10° NNW 16:54:00 63° NE 16:59:32 10° SE
STARLINK-1222 4.4 16:51:37 10° SSW 16:54:02 20° SSE 16:56:02 12° ESE
STARLINK-1211 4.4 16:52:04 10° SSW 16:54:28 20° SSE 16:56:28 12° ESE
STARLINK-1123 4.1 16:50:37 10° W 16:54:38 50° SSW 16:58:25 11° ESE
STARLINK-1214 4.4 16:52:31 10° SSW 16:54:56 20° SSE 16:56:55 12° ESE
STARLINK-1245 4.4 16:53:01 10° SSW 16:55:24 20° SSE 16:57:20 13° ESE
STARLINK-67 3.8 16:53:24 10° SSW 16:55:32 23° SSE 16:57:09 14° ESE
FREGAT/IRIS 2.7 16:52:52 10° S 16:55:35 69° WSW 16:58:20 10° NNW
STARLINK-1238 4.4 16:53:22 10° SSW 16:55:48 21° SSE 16:57:46 13° ESE
STARLINK-1205 4.4 16:54:18 10° SSW 16:56:43 21° SSE 16:58:37 13° ESE
STARLINK-1204 4.4 16:54:46 10° SSW 16:57:11 21° SSE 16:59:02 13° ESE
Cosmos 292 Rocket 4.1 16:52:46 10° NNW 16:57:27 50° NE 17:02:04 10° SE
S3M 4.1 16:51:36 10° S 16:58:00 88° E 17:04:27 10° NNE
Cosmos 1980 3.7 16:52:56 10° SSW 16:58:38 81° ESE 17:04:22 10° NE
Cosmos 1726 3.9 16:57:37 12° ESE 16:59:08 14° E 17:01:11 10° NE
STARLINK-1097 4.2 16:55:34 10° W 16:59:35 49° SSW 17:03:11 12° ESE
Ariane Rocket 3.7 16:58:42 10° S 17:03:43 58° WSW 17:08:44 10° NNW
NOSS 2-2 (D) 4.4 16:58:41 10° NW 17:03:48 87° NE 17:10:33 11° SE
STARLINK-1099 4.2 17:00:33 10° W 17:04:33 47° SSW 17:07:59 13° SE
Cosmos 1766 3.5 17:01:17 10° SSW 17:05:17 75° WNW 17:09:18 10° N
Cosmos 2084 3.5 17:03:37 10° SW 17:08:08 88° SE 17:12:37 10° NE
STARLINK-1104 4.2 17:05:33 10° W 17:09:31 46° SSW 17:12:46 14° SE
Cosmos 1455 Rocket 3.0 17:06:08 10° S 17:10:29 87° E 17:14:54 10° NNE
SL-16 R/B 2.5 17:06:47 10° S 17:12:08 45° ESE 17:17:30 10° NE
Cosmos 2333 Rocket 3.4 17:07:02 10° WSW 17:12:30 47° NW 17:18:00 10° NNE
NOSS 2-1 (E) 3.1 17:09:08 10° SW 17:12:36 86° SE 17:16:46 10° NE
SL-16 R/B 4.5 17:08:57 10° WNW 17:13:15 21° NNW 17:17:35 10° NNE
Cosmos 1626 Rocket 3.6 17:09:12 10° NNW 17:13:40 90° ESE 17:18:03 10° S
STARLINK-1144 4.3 17:10:30 10° W 17:14:27 44° SSW 17:17:32 16° SE
ATLAS 2AS CENTAUR R/B 3.3 17:08:37 10° WNW 17:16:27 61° NNE 17:22:50 14° ESE
Spot 2 Rocket 4.2 17:12:45 14° SE 17:16:47 38° ENE 17:21:30 10° N
BREEZE-M DEB (TANK) 3.9 17:15:50 10° SSW 17:18:11 14° S 17:19:00 13° SSE
Cosmos 2084 Rocket 3.6 17:14:09 10° NW 17:18:37 78° SW 17:22:14 16° SE
Cosmos 1626 2.9 17:15:32 10° NNW 17:19:10 54° W 17:22:47 10° S
STARLINK-1103 4.3 17:15:28 10° W 17:19:24 43° SSW 17:22:19 17° SE
Cosmos 1602 Rocket 3.6 17:16:40 10° NNW 17:21:11 85° E 17:25:38 10° SSE
Aureole 3 4.1 17:17:36 10° SSE 17:21:35 42° E 17:26:37 10° NNE
Cosmos 1953 3.1 17:18:19 10° SSE 17:21:51 31° E 17:25:24 10° NNE
DMSP B5D2-2 4.4 17:17:40 10° NNE 17:22:39 43° E 17:27:36 10° S
Cosmos 1437 3.5 17:20:04 10° N 17:22:52 32° ENE 17:24:09 22° ESE
STARLINK-1101 4.4 17:20:28 10° W 17:24:23 41° SSW 17:27:07 18° SE
USA 186 3.5 17:21:14 10° SSW 17:24:27 37° W 17:27:37 10° NNW
USA 234 3.7 17:19:32 10° ENE 17:25:37 39° SE 17:31:40 10° SSW
STARLINK-1234 3.7 17:23:14 10° SW 17:25:54 30° SSE 17:26:50 24° SE
H-2A R/B 3.1 17:22:37 10° S 17:27:44 47° W 17:32:44 10° NNW
STARLINK-1236 4.5 17:24:44 10° SSW 17:28:16 29° SSE 17:30:01 21° ESE
STARLINK-1102 4.4 17:25:26 10° W 17:29:20 40° SSW 17:31:53 19° SE
Cosmos 2360 Rocket 4.4 17:24:54 10° W 17:29:30 25° NNW 17:34:07 10° NNE
ADEOS Rocket 4.4 17:24:04 10° N 17:30:51 48° WNW 17:36:56 10° SW
IGS 5A 4.5 17:29:20 19° ESE 17:31:24 30° ENE 17:35:03 10° N
Terra 3.4 17:31:51 15° E 17:34:05 21° NE 17:37:34 10° N
STARLINK-1111 4.5 17:30:25 10° W 17:34:17 39° SSW 17:36:40 20° SE
NOSS 0 Rocket 4.4 17:28:08 10° SW 17:34:17 65° NW 17:40:29 10° NE
CZ-2C R/B 3.7 17:30:12 10° NNE 17:35:00 68° ESE 17:39:42 10° S
Aureole 2 Rocket 2.3 17:32:40 10° NNW 17:36:12 82° ENE 17:38:18 22° SSE
STARLINK-1269 4.4 17:33:59 10° SW 17:37:36 31° SSE 17:39:03 24° ESE
Cosmos 1544 Rocket 3.9 17:33:33 10° SSW 17:37:57 70° WNW 17:42:25 10° N
Cosmos 1980 Rocket 4.5 17:35:13 10° NW 17:38:52 17° N 17:42:31 10° NE
COSMOS 2455 3.7 17:34:50 10° NW 17:40:30 40° NNE 17:44:52 16° E
Cosmos 1703 3.7 17:36:49 10° N 17:40:35 42° ENE 17:42:24 25° SE
Cosmos 1825 Rocket 3.7 17:36:11 10° N 17:40:36 59° ENE 17:43:32 20° SSE
Cosmos 2184 Rocket 4.0 17:35:07 10° N 17:41:30 73° ENE 17:47:25 12° SSE
ERBS 2.2 17:38:29 10° WSW 17:41:52 83° SSE 17:43:59 21° ENE
STARLINK-1200 4.3 17:38:36 10° SW 17:42:15 33° SSE 17:43:33 26° ESE
Cosmos 2237 Rocket 2.7 17:36:51 10° SW 17:42:27 62° NW 17:48:04 10° NNE
MetOp-B 4.2 17:38:32 17° SE 17:42:42 64° ENE 17:48:01 10° NNW
CZ-2C R/B 2.7 17:38:39 10° NNE 17:43:45 52° E 17:48:48 10° S
Cosmos 1992 Rocket 4.0 17:41:08 10° NNW 17:46:22 84° WSW 17:50:23 17° SSE
Cosmos 2344 4.5 17:38:58 10° W 17:46:39 54° N 17:56:27 10° ENE
STARLINK-1192 4.2 17:43:08 10° SW 17:46:50 34° SSE 17:48:00 28° ESE
Cosmos 1758 Rocket 3.5 17:45:27 10° N 17:49:52 81° ENE 17:52:57 19° SSE
SeaSat 1 4.3 17:46:19 10° NNE 17:50:42 32° NW 17:55:04 10° W
Cosmos 1269 Rocket 4.1 17:45:43 10° SSW 17:51:02 82° WNW 17:56:24 10° NNE
STARLINK-1244 4.2 17:47:54 10° SW 17:51:37 35° SSE 17:52:37 31° SE
STARLINK-1201 3.6 17:51:41 10° SW 17:54:45 37° SSE 17:54:56 37° SSE
SL-24 R/B 4.2 17:50:19 10° NNE 17:55:17 88° WNW 17:59:34 10° SSW
Cosmos 1953 Rocket 3.7 17:51:46 10° N 17:56:10 58° ENE 17:58:20 28° SE
STARLINK-1138 4.1 17:52:30 10° SW 17:56:15 37° SSE 17:57:07 33° SE
Cosmos 1656 Rocket 3.8 17:50:54 10° NNW 17:56:37 69° NE 17:59:50 26° SE
Cosmos 2251 Rocket 3.8 17:52:46 10° S 17:57:50 44° ESE 18:02:56 10° NE
Cosmos 1461 3.9 17:55:56 10° NW 18:00:06 41° NNE 18:02:23 23° E
STARLINK-1143 4.1 17:57:12 10° SW 18:01:00 38° SSE 18:01:41 35° SE
STARLINK-1209 3.4 17:58:36 10° WSW 18:00:56 36° S 18:00:56 36° S
STARLINK-1228 3.5 17:59:26 10° WSW 18:01:45 36° SSW 18:01:45 36° SSW
Cosmos 2154 Rocket 4.0 17:56:01 10° N 18:02:24 69° ENE 18:06:43 22° SSE
Cosmos 2315 Rocket 4.4 17:57:13 10° SSW 18:03:30 68° WNW 18:09:54 10° N
Cosmos 1606 Rocket 3.8 18:06:12 31° SSE 18:07:57 49° E 18:12:15 10° NNE
Cosmos 1470 3.6 18:04:49 10° SSW 18:08:36 51° WNW 18:12:27 10° N
NOSS 2-1 (C) 4.3 18:07:26 10° W 18:10:52 44° NNW 18:15:02 10° NE
ERS-1 Rocket 3.2 18:08:48 31° SE 18:10:55 52° ENE 18:15:49 10° N
STARLINK-1241 3.9 18:07:43 10° SW 18:11:31 41° SSE 18:11:48 41° SSE
Cosmos 2369 Rocket 2.6 18:06:37 10° NW 18:12:14 59° WSW 18:16:02 21° S
ATLAS CENTAUR R/B 3.4 18:09:34 10° WNW 18:13:05 24° N 18:16:25 10° NE
STARLINK-1233 3.8 18:11:50 10° WSW 18:14:11 36° SSW 18:14:11 36° SSW
NOSS 2-1 (D) 4.4 18:11:40 10° W 18:15:05 42° NNW 18:19:17 10° NE
ISS -2.2 18:12:23 10° WSW 18:15:11 24° SSW 18:15:13 24° SSW
STARLINK-1212 3.8 18:12:18 10° WSW 18:14:36 35° SSW 18:14:36 35° SSW
USA 245 4.1 18:12:26 26° SSE 18:15:24 86° ENE 18:21:26 10° NNW
STARLINK-1105 3.8 18:12:45 10° WSW 18:15:03 35° SSW 18:15:03 35° SSW
Cosmos 2263 4.3 18:10:14 10° NW 18:15:52 71° WSW 18:19:01 27° SSE
STARLINK-1239 3.9 18:12:15 10° SW 18:16:05 43° SSE 18:16:12 42° SSE
Cosmos 1758 4.3 18:12:11 10° SSW 18:16:09 49° WNW 18:20:09 10° N
STARLINK-1206 3.8 18:13:13 10° WSW 18:15:27 34° SSW 18:15:27 34° SSW
STARLINK-1247 3.9 18:13:40 10° WSW 18:15:53 34° SSW 18:15:53 34° SSW
STARLINK-1227 3.8 18:14:04 10° WSW 18:16:19 35° SSW 18:16:19 35° SSW
STARLINK-1218 3.9 18:14:34 10° WSW 18:16:45 34° SSW 18:16:45 34° SSW
STARLINK-1226 3.9 18:15:01 10° WSW 18:17:13 34° SSW 18:17:13 34° SSW
SPOT 5 3.0 18:16:52 37° ESE 18:18:01 46° ENE 18:22:11 10° N
STARLINK-1254 3.9 18:15:25 10° WSW 18:17:38 34° SSW 18:17:38 34° SSW
STARLINK-1215 3.9 18:15:55 10° WSW 18:18:03 33° SSW 18:18:03 33° SSW
Resurs 01 Rocket 2.6 18:15:31 13° S 18:19:13 45° W 18:23:29 10° NNW
STARLINK-1231 3.9 18:16:21 10° WSW 18:18:28 33° SSW 18:18:28 33° SSW
STARLINK-1232 4.0 18:17:16 10° WSW 18:19:21 32° SSW 18:19:21 32° SSW
STARLINK-1240 3.9 18:16:49 10° SW 18:20:37 44° SSE 18:20:37 44° SSE
STARLINK-1217 4.0 18:17:43 10° WSW 18:19:48 32° SSW 18:19:48 32° SSW
STARLINK-1208 4.0 18:18:07 10° WSW 18:20:15 33° SSW 18:20:15 33° SSW
STARLINK-1229 4.0 18:18:36 10° WSW 18:20:39 32° SW 18:20:39 32° SW
STARLINK-1271 4.0 18:19:03 10° WSW 18:21:07 32° SW 18:21:07 32° SW
STARLINK-1270 4.1 18:19:31 10° WSW 18:21:32 32° SW 18:21:32 32° SW
STARLINK-1154 4.1 18:19:57 10° WSW 18:21:57 31° SW 18:21:57 31° SW
STARLINK-1197 4.1 18:20:51 10° WSW 18:22:48 31° SW 18:22:48 31° SW
STARLINK-1189 4.1 18:21:18 10° WSW 18:23:15 31° SW 18:23:15 31° SW
SL-8 Rocket 4.4 18:18:46 10° N 18:24:52 49° ENE 18:27:18 33° ESE
STARLINK-1187 4.0 18:22:06 10° WSW 18:24:10 33° SW 18:24:10 33° SW
STARLINK-1188 4.2 18:22:11 10° WSW 18:24:07 30° SW 18:24:07 30° SW
STARLINK-1216 3.9 18:21:23 10° SW 18:25:03 45° S 18:25:03 45° S
STARLINK-1198 4.2 18:22:26 10° WSW 18:24:21 30° SW 18:24:21 30° SW
STARLINK-1235 3.9 18:22:46 10° WSW 18:24:55 35° SW 18:24:55 35° SW
Nadezhda 1 Rocket 4.0 18:21:45 18° S 18:26:42 69° E 18:33:03 10° NNE
STARLINK-1199 4.2 18:24:07 10° WSW 18:26:02 30° SW 18:26:02 30° SW
STARLINK-1191 4.2 18:24:35 10° WSW 18:26:29 30° SW 18:26:29 30° SW
Cosmos 1908 3.2 18:27:42 55° ESE 18:27:46 55° E 18:31:35 10° NNE
STARLINK-1210 4.2 18:25:01 10° WSW 18:26:54 30° SW 18:26:54 30° SW
CZ-4C R/B 3.5 18:22:37 10° WNW 18:28:22 44° N 18:35:14 10° ENE
STARLINK-1221 4.2 18:25:27 10° WSW 18:27:21 30° SW 18:27:21 30° SW
STARLINK-1219 4.2 18:25:55 10° WSW 18:27:48 29° SW 18:27:48 29° SW
STARLINK-1222 4.3 18:26:21 10° WSW 18:28:12 29° SW 18:28:12 29° SW
Landsat 7 3.8 18:27:41 35° SSE 18:29:42 88° WSW 18:34:30 10° NNW
STARLINK-1211 4.3 18:26:48 10° WSW 18:28:38 29° SW 18:28:38 29° SW
STARLINK-1237 3.9 18:26:03 10° WSW 18:29:33 45° S 18:29:33 45° S
STARLINK-1214 4.3 18:27:16 10° WSW 18:29:05 29° SW 18:29:05 29° SW
STARLINK-1245 4.4 18:27:46 10° WSW 18:29:30 28° SW 18:29:30 28° SW
MOS 1 Rocket 3.8 18:25:50 10° N 18:30:56 71° WNW 18:36:15 10° SSW
STARLINK-1238 4.3 18:28:07 10° WSW 18:29:56 28° SW 18:29:56 28° SW
Cosmos 2366 rocket 4.4 18:26:04 10° N 18:31:57 44° ENE 18:33:55 34° ESE
Cosmos 921 Rocket 3.3 18:27:52 10° NNW 18:31:59 48° ENE 18:32:33 45° E
STARLINK-1205 4.4 18:29:06 10° WSW 18:30:48 27° SW 18:30:48 27° SW
STARLINK-1204 4.4 18:29:32 10° WSW 18:31:13 27° SW 18:31:13 27° SW
Cosmos 1726 2.3 18:32:03 29° SSW 18:33:50 72° WNW 18:37:36 10° N
Cosmos 2219 Rocket 4.5 18:29:49 10° WNW 18:34:21 24° NNW 18:38:52 10° NNE
STARLINK-1202 4.0 18:30:38 10° WSW 18:33:59 44° SSW 18:33:59 44° SSW
NOSS 3-4 (A) 3.7 18:28:14 10° NW 18:35:00 87° SW 18:38:31 34° SE
NOSS 3-4 (C) 3.7 18:28:19 10° NW 18:35:06 88° SW 18:38:37 34° SE
Cosmos 2228 2.8 18:34:16 41° S 18:35:41 80° E 18:40:02 10° NNE
SAR-Lupe-2 3.6 18:33:24 10° NNE 18:37:00 78° WNW 18:38:01 45° SSW
Cosmos 1943 Rocket 3.5 18:32:36 10° NW 18:37:29 33° WSW 18:41:18 15° SSW
STARLINK-1246 4.0 18:35:31 10° WSW 18:38:50 45° SSW 18:38:50 45° SSW
Cosmos 1943 3.3 18:37:49 36° SSE 18:39:37 50° ESE 18:45:06 10° NE
Cosmos 1340 Rocket 3.5 18:46:37 42° ENE 18:46:37 42° ENE 18:49:47 10° NNE
Cosmos 2058 3.8 18:42:27 10° N 18:46:01 35° ENE 18:46:01 35° ENE
Cosmos 2058 Rocket 3.1 18:46:56 60° ESE 18:47:16 63° E 18:51:46 10° NNE
NOSS 3-3 (A) 4.0 18:42:21 10° SSW 18:48:08 52° SE 18:54:43 10° NE
NOSS 3-3 (C) 4.1 18:42:28 10° SSW 18:48:15 52° SE 18:54:48 10° NE
STARLINK-1224 4.3 18:44:30 10° WSW 18:47:24 40° SW 18:47:24 40° SW
STARLINK-1225 4.4 18:49:10 10° WSW 18:51:56 38° SW 18:51:56 38° SW
SPOT 1/Viking Rocket 3.8 18:51:28 36° S 18:53:33 67° WSW 18:58:47 10° NNW
Meteor 2-10 4.5 18:48:17 10° SSW 18:53:37 64° WNW 18:59:12 10° N
STARLINK-1203 4.5 18:51:07 10° WSW 18:53:41 36° SW 18:53:41 36° SW
Mayak 0.8 18:52:22 10° NE 18:53:46 16° NE 18:53:46 16° NE
Spot 2 Rocket 4.4 18:52:55 24° SSW 18:55:43 45° W 19:00:39 10° NNW
SL-16 R/B 3.1 18:50:47 10° WSW 18:56:17 49° NW 19:01:48 10° NNE
Cosmos 1953 4.0 18:54:37 10° SW 18:58:14 33° WNW 19:01:53 10° N
Cosmos 1697 Rocket 4.2 18:55:08 10° NNW 19:00:01 29° NNE 19:02:36 21° ENE
Cosmos 1408 4.5 19:01:47 10° N 19:03:44 21° NE 19:03:44 21° NE
Cosmos 2341 Rocket 4.1 19:00:01 10° NNW 19:06:22 79° W 19:08:56 39° S
IGS 5A 4.4 19:05:47 36° SW 19:06:45 42° W 19:10:45 10° NNW
ATLAS 2AS CENTAUR R/B 3.0 19:00:03 10° NW 19:07:42 65° SW 19:10:15 42° SSE
USA 234 3.1 19:02:40 10° ENE 19:09:15 79° SSE 19:15:48 10° WSW
Terra 1.7 19:10:44 70° S 19:11:18 87° WSW 19:16:07 10° NNW
Cosmos 1076 Rocket 3.7 19:07:54 10° N 19:11:45 59° NE 19:11:45 59° NE
CARTOSAT-1 3.8 19:13:45 56° SW 19:14:11 59° WSW 19:18:29 10° NNW
Cosmos 1140 Rocket 4.4 19:16:46 35° ENE 19:16:46 35° ENE 19:20:16 10° NE
Cosmos 1603 3.6 19:12:02 10° SW 19:17:40 84° NW 19:23:20 10° NE
ERBS 3.9 19:14:56 10° W 19:16:58 33° WNW 19:16:58 33° WNW
Cosmos 468 Rocket 4.3 19:13:37 10° NNW 19:18:44 51° NE 19:19:17 49° ENE
Cosmos 1726 Rocket 4.3 19:18:06 33° SW 19:19:40 50° WNW 19:24:00 10° N
Cosmos 407 Rocket 3.6 19:24:36 56° ENE 19:24:36 56° ENE 19:28:59 10° NNE
CZ-2C R/B 4.1 19:19:15 10° N 19:23:55 34° WNW 19:28:31 10° WSW
Cosmos 1980 Rocket 3.8 19:20:06 10° NNW 19:24:50 27° NNE 19:27:23 19° ENE
COSMOS 2455 2.7 19:20:56 10° NW 19:27:00 81° SW 19:28:01 63° SSE
Cosmos 2237 Rocket 4.5 19:23:06 10° WNW 19:27:38 24° NNW 19:32:11 10° NNE
Aureole 1 Rocket 4.1 19:24:44 35° SSW 19:28:15 75° ESE 19:34:31 10° NNE
Cosmos 2151 4.0 19:27:45 10° N 19:30:55 38° NE 19:30:55 38° NE
RESURS DK-1 3.9 19:28:30 10° NNW 19:32:11 29° NE 19:32:14 29° NE
Iridium 4 Rocket 3.2 19:27:42 10° N 19:32:05 74° WNW 19:32:05 74° WNW
Meteor 2-12 Rocket 4.3 19:28:31 10° NNW 19:34:42 84° ENE 19:35:41 65° SSE
Cosmos 2218 Rocket 4.0 19:29:02 10° NNW 19:35:13 77° W 19:36:38 55° SSW
Cosmos 1812 Rocket 4.5 19:36:36 40° NE 19:36:36 40° NE 19:39:34 10° NNE
Cosmos 1892 3.7 19:34:12 10° N 19:36:59 46° N 19:36:59 46° N
Cosmos 1461 3.6 19:35:02 10° NW 19:38:46 54° W 19:38:46 54° W
USA 32 4.0 19:36:25 10° N 19:41:40 73° ENE 19:41:40 73° ENE
Cosmos 614 Rocket 3.9 19:48:11 76° WSW 19:48:31 81° WNW 19:53:47 10° NNE
Cosmos 2181 Rocket 4.0 19:48:22 55° SSW 19:49:52 81° WNW 19:56:08 10° N
ERS-1 Rocket 4.3 19:48:48 28° WSW 19:49:57 32° W 19:54:27 10° NNW
In-Cosmos 22 Rocket 4.5 19:46:53 10° NNW 19:52:37 63° W 19:53:25 57° SW
ATLAS CENTAUR R/B 2.8 19:49:21 10° NW 19:53:01 30° NNE 19:53:05 30° NNE
SPOT 5 4.1 19:56:05 28° W 19:56:19 29° W 20:00:08 10° NW
Meteor 2-3 Rocket 4.3 19:51:41 10° N 19:57:16 45° ENE 19:57:31 45° ENE
Meteor 2-10 Rocket 4.4 20:00:37 37° ENE 20:00:37 37° ENE 20:04:25 10° NNE
Cosmos 2344 4.3 19:54:05 10° WNW 20:02:37 69° NNE 20:10:06 24° ESE
Cosmos 1656 3.6 20:01:32 10° NNW 20:07:17 77° NE 20:07:22 76° ENE
Cosmos 1300 4.3 20:10:09 33° NW 20:10:09 33° NW 20:12:51 10° N
Cosmos 1814 Rocket 4.4 20:05:18 10° NNW 20:10:29 56° NE 20:10:29 56° NE
Cosmos 2369 4.0 20:06:20 10° NNW 20:11:56 56° NE 20:12:17 55° ENE
ATLAS 5 CENTAUR R/B 4.2 20:16:12 12° ENE 20:16:12 12° ENE 20:16:41 10° ENE
Cosmos 1825 3.9 20:09:18 10° N 20:11:25 31° N 20:11:25 31° N
CZ-4C R/B 3.1 20:11:37 10° NW 20:18:02 59° NNE 20:21:24 33° E
Okean 3 Rocket 4.5 20:16:29 10° NNW 20:19:42 47° NNW 20:19:42 47° NNW
Cosmos 1943 4.1 20:19:28 16° WSW 20:23:48 46° NW 20:29:18 10° NNE
ALOS 2 3.6 20:25:45 45° N 20:25:45 45° N 20:28:55 10° NNW
Cosmos 1570 Rocket 4.2 20:22:08 10° NNW 20:26:58 72° NNW 20:26:58 72° NNW
Cosmos 1763 Rocket 3.8 20:22:40 10° NNW 20:27:10 60° WNW 20:27:10 60° WNW
Nadezhda 3 Rocket 3.9 20:28:23 75° E 20:28:23 75° E 20:34:42 10° NNE
Cosmos 1190 Rocket 4.4 20:28:36 58° WNW 20:28:57 59° NW 20:34:13 10° NNE
ASTEX 1 3.9 20:30:29 56° WNW 20:30:29 56° WNW 20:34:52 10° NNW
Cosmos 1818 3.7 20:31:11 69° NNE 20:31:11 69° NNE 20:36:08 10° NE
Mayak 0.0 20:27:27 10° N 20:30:20 40° NNW 20:30:20 40° NNW
Cosmos 1535 Rocket 4.3 20:28:13 10° N 20:34:22 79° ENE 20:34:22 79° ENE
NOSS 3-3 (A) 4.4 20:32:50 10° WSW 20:39:02 64° NNW 20:46:09 10° NE
NOSS 3-3 (C) 4.4 20:32:56 10° WSW 20:39:07 64° NNW 20:46:15 10° NE
Thor Agena Rocket 3.8 20:37:35 10° NNE 20:42:05 62° NNW 20:42:05 62° NNW
Cosmos 1697 Rocket 2.8 20:39:05 10° NW 20:44:19 75° N 20:44:19 75° N
SL-16 R/B 3.7 20:40:28 10° NNW 20:45:29 31° NNE 20:47:46 23° ENE
Terra 4.0 20:49:37 16° W 20:49:47 16° W 20:52:43 10° NW
USA 234 3.2 20:45:48 10° E 20:52:22 81° N 20:58:55 10° W
Cosmos 676 Rocket 4.5 20:55:52 57° NW 20:55:52 57° NW 21:00:54 10° NNE
Cosmos 841 Rocket 4.0 20:51:24 10° NNW 20:55:36 54° NW 20:55:36 54° NW
Cosmos 1140 Rocket 4.3 20:56:44 43° WNW 20:57:13 44° NW 21:02:12 10° NNE
ATLAS 2AS CENTAUR R/B 4.4 20:52:09 10° WNW 20:57:19 20° WSW 20:57:42 20° WSW
Cosmos 2360 4.3 20:52:47 10° NW 20:58:00 72° N 20:58:00 72° N
Nimbus 7 Rocket 4.4 20:52:50 10° NNE 20:58:13 73° NE 20:58:13 73° NE
Cosmos 2322 Rocket 3.7 20:55:33 10° NNW 21:00:36 32° NE 21:02:50 24° ENE
Cosmos 2360 Rocket 4.2 20:56:59 10° NNW 21:01:35 24° NNE 21:06:08 10° E
Cosmos 1821 Rocket 4.5 20:55:54 10° NNW 21:01:57 50° W 21:02:13 49° W
Cosmos 540 Rocket 4.1 20:58:48 10° NNW 21:02:43 49° NW 21:02:43 49° NW
Cosmos 2221 4.3 21:06:29 28° NE 21:06:29 28° NE 21:08:48 10° NNE
Cosmos 1980 Rocket 2.4 21:04:06 10° NNW 21:09:09 68° N 21:09:09 68° N
RESURS DK-1 4.5 21:06:24 10° NW 21:08:08 24° NW 21:08:08 24° NW
Cosmos 1741 Rocket 4.5 21:16:54 58° NNE 21:16:54 58° NNE 21:21:13 10° NNE
Cosmos 2278 4.0 21:12:32 10° NW 21:17:17 63° NW 21:17:17 63° NW
Cosmos 1605 Rocket 3.9 21:14:18 10° NNW 21:20:05 75° WNW 21:20:05 75° WNW
SL-24 R/B - RUBIN 2 4.4 21:23:26 74° NW 21:23:36 75° NW 21:30:09 10° NE
Cosmos 1934 Rocket 4.4 21:17:27 10° NNW 21:23:28 54° W 21:23:28 54° W
COSMOS 2406 3.7 21:25:42 53° ENE 21:25:42 53° ENE 21:30:10 10° NE
Cosmos 2173 Rocket 4.3 21:19:57 10° N 21:25:56 55° ENE 21:26:04 55° ENE
Cosmos 2082 Rocket 3.4 21:33:29 31° ENE 21:33:29 31° ENE 21:37:08 10° NE
ATLAS CENTAUR R/B 3.8 21:28:22 10° NW 21:29:15 16° NW 21:29:15 16° NW
Cosmos 2061 Rocket 4.5 21:31:00 10° N 21:37:03 49° ENE 21:37:36 48° E
SL-16 R/B 3.6 21:36:32 30° E 21:38:31 38° NE 21:44:12 10° N
SME Rocket 4.1 21:35:16 10° NNE 21:39:45 52° NE 21:39:45 52° NE
Cosmos 1339 Rocket 4.4 21:42:26 84° WNW 21:42:26 84° WNW 21:48:50 10° N
ATLAS 5 CENTAUR R/B 2.7 21:57:42 47° NNE 21:57:42 47° NNE 22:01:47 10° NE
Cosmos 1833 Rocket 2.9 22:03:29 64° NE 22:03:29 64° NE 22:08:18 10° NE
Mayak 1.5 22:04:53 10° NNW 22:06:17 11° NW 22:06:55 11° WNW
Cosmos 2219 Rocket 4.2 22:01:38 10° NNW 22:06:19 26° NNE 22:10:59 10° E
CZ-4C R/B 2.8 22:00:08 10° NW 22:06:33 66° WSW 22:06:33 66° WSW
CZ-4 R/B 4.5 22:07:21 10° NNE 22:11:07 55° NNE 22:11:07 55° NNE
CZ-2D R/B 3.7 22:08:11 10° NE 22:12:39 25° E 22:12:56 25° E
Cosmos 2344 4.3 22:08:26 10° NW 22:17:28 60° SW 22:20:04 50° S
Resurs 1-4 Rocket 3.6 22:13:15 10° NE 22:17:41 26° E 22:17:48 26° E
ADEOS II 4.4 22:20:58 10° NE 22:23:26 13° E 22:25:13 11° ESE
MOS 1-B Rocket 4.1 22:17:57 10° NNE 22:23:35 60° WNW 22:23:48 59° WNW
Helios 1B rocket 3.9 22:25:43 10° N 22:28:16 34° N 22:28:16 34° N
SL-16 R/B 2.3 22:24:34 10° NW 22:29:37 70° NW 22:29:37 70° NW
Cosmos 1802 Rocket 3.9 22:24:03 10° NNW 22:30:13 74° W 22:30:13 74° W
Cosmos 2333 Rocket 3.8 22:25:34 10° NNW 22:30:39 33° NE 22:35:44 10° E
SL-19 R/B 4.3 22:32:59 87° W 22:32:59 87° W 22:38:42 10° NNW
Cosmos 1727 Rocket 4.1 22:33:51 60° W 22:34:03 60° WNW 22:40:19 10° N
UNK 4.4 22:35:58 55° NNE 22:35:58 55° NNE 22:39:54 10° N
USA 234 3.1 22:28:53 10° ESE 22:35:28 83° SSW 22:42:03 10° WNW
Cosmos 773 Rocket 4.2 22:32:17 10° NNW 22:36:44 65° N 22:36:44 65° N
Cosmos 2221 4.3 22:43:19 25° NW 22:43:19 25° NW 22:46:08 10° N
Cosmos 1864 Rocket 4.3 22:36:46 10° NNW 22:43:06 82° W 22:43:22 80° SW
ERS-2 4.1 22:45:00 27° NE 22:45:00 27° NE 22:47:31 10° N
Cosmos 2322 Rocket 2.2 22:39:36 10° NW 22:44:37 70° NW 22:44:37 70° NW
Cosmos 1328 Rocket 4.5 22:46:43 45° NNE 22:46:43 45° NNE 22:49:51 10° NNE
NOSS 2-1 (E) 4.4 22:41:26 10° NW 22:53:15 - SE 22:45:08 59° NW
Cosmos 1725 Rocket 3.8 22:40:04 10° NNW 22:46:26 80° W 22:46:41 78° SW
Cosmos 2360 Rocket 2.4 22:41:01 10° NNW 22:46:38 65° NE 22:47:51 51° ESE
Cosmos 2100 Rocket 4.4 22:41:20 10° NNW 22:46:49 46° W 22:46:49 46° W
Cosmos 1459 Rocket 4.4 22:43:56 10° NNW 22:49:51 49° W 22:49:51 49° W
Cosmos 2233 Rocket 4.0 22:44:05 10° N 22:50:27 79° ENE 22:51:21 66° SE
Cosmos 1980 Rocket 3.9 22:48:40 10° NW 22:50:54 20° WNW 22:50:54 20° WNW
Cosmos 2016 Rocket 4.1 22:47:08 10° NNW 22:53:27 63° W 22:53:28 63° W
Cosmos 2237 Rocket 4.3 22:55:07 10° NNW 22:59:50 26° NNE 23:04:33 10° E
Cosmos 1354 Rocket 4.1 23:00:18 73° E 23:00:18 73° E 23:05:19 10° NNE
Cosmos 2123 Rocket 3.8 22:59:30 75° S 23:00:04 86° E 23:06:17 10° NNE
SL-08 R/B 4.5 22:55:47 10° NNW 23:01:51 63° W 23:01:51 63° W
MOZ.5/SAFIR/RUBIN 5/SL-8 4.4 23:05:42 48° NW 23:05:42 48° NW 23:09:21 10° NNW
Cosmos 1241 Rocket 4.3 22:58:38 10° NW 23:04:55 81° SW 23:05:42 69° SSE
Cosmos 1606 4.1 23:08:52 38° N 23:08:52 38° N 23:11:21 10° NNE
Cosmos 968 Rocket 3.5 23:08:31 75° NW 23:08:31 75° NW 23:13:38 10° NNE
COSMOS 2406 4.3 23:07:44 31° WNW 23:09:14 36° NW 23:14:31 10° NNE
H-2A R/B 3.6 23:09:02 26° E 23:10:26 32° ENE 23:14:12 10° N
AQUA 4.4 23:11:02 10° NNE 23:15:40 48° E 23:15:52 47° ESE
Cosmos 2082 Rocket 2.4 23:15:19 55° WNW 23:15:55 58° NW 23:21:32 10° NNE
IRS-1D 4.4 23:14:08 10° NNE 23:18:49 39° E 23:19:40 36° ESE
Cosmos 923 Rocket 4.3 23:15:58 10° NNW 23:21:13 66° ENE 23:23:05 39° SE
Cosmos 1503 Rocket 3.9 23:21:21 75° WNW 23:21:26 75° WNW 23:26:42 10° NNE
SL-16 R/B 2.5 23:21:37 60° WSW 23:21:57 61° WSW 23:28:09 10° NNW
Cosmos 1315 Rocket 4.2 23:23:39 33° NNW 23:23:39 33° NNW 23:26:27 10° N
Cosmos 2237 4.0 23:17:57 10° NW 23:23:42 79° WSW 23:24:04 75° SSW
Gblst 52 Del rocket 4.4 23:26:17 60° S 23:26:17 60° S 23:32:00 10° ESE
NPP 3.7 23:23:36 10° NNE 23:29:01 72° ESE 23:29:46 63° SSE
Cosmos 1500 4.3 23:25:39 10° N 23:29:05 41° ENE 23:29:05 41° ENE
Meteor 1-20 Rocket 4.5 23:24:16 10° NNW 23:29:49 54° W 23:29:49 54° W
Cosmos 1607 3.8 23:31:23 64° SSW 23:32:26 84° SE 23:38:44 10° NE
COSMOS 2428 3.3 23:28:20 10° NNW 23:33:59 57° NE 23:39:36 10° SE
Cosmos 1869 Rocket 3.7 23:31:38 10° NNW 23:35:36 71° NNW 23:35:36 71° NNW
Meteor 2-20 4.4 23:38:28 59° SW 23:39:39 77° WNW 23:45:53 10° N
USA 267 3.7 23:34:29 10° ENE 23:40:42 44° SE 23:42:05 39° S
Cosmos 1538 Rocket 4.5 23:36:18 10° NW 23:40:25 45° WNW 23:40:25 45° WNW
Cosmos 1680 Rocket 3.6 23:36:34 10° NNW 23:41:49 73° ENE 23:44:58 24° SE
ATLAS 5 CENTAUR R/B 3.3 23:39:11 19° WNW 23:42:09 36° N 23:47:16 10° ENE
Cosmos 2322 3.6 23:36:39 10° NW 23:42:25 87° NE 23:46:31 20° SE
CZ-4B R/B 3.2 23:38:21 10° NNE 23:43:18 85° WNW 23:43:37 78° SW
Meteor 1-11 Rocket 4.2 23:38:45 10° N 23:44:35 62° ENE 23:49:14 17° SSE
Cosmos 2228 Rocket 3.0 23:44:57 85° W 23:44:57 85° W 23:49:36 10° NNE
Cosmos 2333 4.1 23:40:37 10° NW 23:46:16 87° ENE 23:50:55 15° SE
Cosmos 158 Rocket 4.4 23:41:25 10° NNW 23:46:46 64° ENE 23:51:57 10° SE
Cosmos 1833 Rocket 3.9 23:45:10 26° WNW 23:47:08 33° NW 23:52:14 10° NNE
Cosmos 2034 Rocket 4.3 23:42:31 10° N 23:48:53 67° ENE 23:53:55 17° SSE
Cosmos 2219 Rocket 2.3 23:45:36 10° NNW 23:51:15 72° NE 23:56:51 10° SE
Cosmos 1151 Rocket 4.1 23:51:46 33° NW 23:51:46 33° NW 23:55:16 10° N
CZ-2D R/B 2.1 23:47:47 10° NNE 23:53:14 73° WNW 23:54:16 57° SW
Cosmos 1515 Rocket 4.1 23:53:47 45° NW 23:53:47 45° NW 23:57:36 10° N
Cosmos 1782 3.0 23:56:06 66° NNW 23:56:06 66° NNW 23:59:39 10° N
